Regional Weather Roundup
Issued by NWS

Home | Current Version | Previous Version | Graphics & Text | Print | Product List | Glossary On
Versions: 1 2 3 4 5 6 7 8 9 10 11 12 13 14 15 16 17 18 19 20 21 22 23 24 25 26 27 28 29 30 31 32 33 34 35 36 37 38 39 40 41 42 43 44 45 46 47 48 49 50
000
ASUS43 KLSX 180107
RWRMO

WEATHER SUMMARY FOR MISSOURI
NATIONAL WEATHER SERVICE SPRINGFIELD MO
800 PM CDT FRI APR 17 2015

NOTE: "FAIR" INDICATES FEW OR NO CLOUDS BELOW 12,000 FEET WITH NO
       SIGNIFICANT WEATHER AND/OR OBSTRUCTIONS TO VISIBILITY.
       CURRENT SKY AND/OR WEATHER CONDITIONS ARE NOT AVAILABLE FOR
       CHILLICOTHE AND FARMINGTON.

MOZ001>031-035>038-043-044-053-054-180200-
...NORTHERN AND WESTERN MISSOURI...

CITY           SKY/WX    TMP DP  RH WIND       PRES   REMARKS
KANSAS CTY INT CLOUDY    66  60  81 E3        29.96F
KANSAS C DTWN  MOCLDY    74  57  55 SW5       29.95S
LEE`S SUMMIT   CLOUDY    73  56  54 CALM      29.97R
ST JOSEPH      CLOUDY    72  56  57 SE3       29.96S
CHILLICOTHE      N/A     73  59  61 CALM      29.98S
KIRKSVILLE     PTCLDY    69  57  65 SE6       29.99S

$$
MOZ066>068-077>081-088>096-101>105-180200-
...SOUTHWEST MISSOURI...

CITY           SKY/WX    TMP DP  RH WIND       PRES   REMARKS
SPRINGFIELD    PTCLDY    69  56  62 SE6       29.95F
JOPLIN         MOCLDY    71  60  68 SE3       29.94S

$$
MOZ032>034-039>042-045>050-055>058-069>072-180200-
...CENTRAL MISSOURI...

CITY           SKY/WX    TMP DP  RH WIND       PRES   REMARKS
COLUMBIA       CLOUDY    73  55  53 E6        29.97S
JEFFERSON CITY CLOUDY    77  54  44 NE9       29.95S
ROLLA          CLOUDY    71  56  58 S5        29.97R
SEDALIA        PTCLDY    73  56  54 E6        29.97F
WHITEMAN AFB   PTCLDY    72  58  60 E5        29.95S
WARRENSBURG    CLOUDY    73  54  49 CALM      29.95R
OSAGE BEACH    MOCLDY    75  54  46 NE5       29.96S

$$
MOZ051-052-059>065-180200-
...EAST CENTRAL MISSOURI...

CITY           SKY/WX    TMP DP  RH WIND       PRES   REMARKS
ST LOUIS INTL  PTCLDY    72  54  53 E7        30.00R
SPIRIT OF STL  PTCLDY    73  55  53 E5        29.98R
ST CHARLES     CLEAR     70  55  59 E6        29.99R

$$
MOZ072>076-082>087-097>100-106>115-180200-
...SOUTH CENTRAL AND SOUTHEAST MISSOURI...

CITY           SKY/WX    TMP DP  RH WIND       PRES   REMARKS
CAPE GIRARDEAU CLEAR     66  62  87 S3        29.99F
FARMINGTON     PTCLDY    70  57  64 S6        30.04R
POPLAR BLUFF   CLEAR     67  62  84 SE3       30.00R
WEST PLAINS    PTCLDY    70  61  73 S5        30.00S

$$



USA.gov is the U.S. government's official web portal to all federal, state and local government web resources and services.